    Orbital elements:
    2015 BC                                                  Earth MOID = 0.0006 AU
    Epoch 2014 Dec. 9.0 TT = JDT 2457000.5                  MPC
    M 293.73044              (2000.0)            P               Q
    n   0.69505040     Peri.  104.59933     -0.69497808     +0.69143284
    a   1.2621913      Node   119.59943     -0.71552802     -0.63799549
    e   0.5767161      Incl.   13.11513     -0.07088809     -0.33894302
    P   1.42           H   24.1           G   0.15           U   7
    Residuals in seconds of arc
    150116 703  0.8-  0.1-    150116 E23  0.3+  0.7+    150117 807  0.2+  0.1-
    150116 703  0.4-  0.0     150116 J95  0.0   0.1-    150117 H01  0.1-  0.0
    150116 703  0.3+  0.2+    150116 461  0.2-  0.1-    150117 H01  0.0   0.0
    150116 703  0.4+  0.4-    150116 J95  0.1+  0.0     150117 H01  0.1+  0.0
    150116 H01  0.0   0.1-    150116 461  0.6-  0.3+    150117 H01  0.0   0.0
    150116 807  0.1+  0.1+    150116 J95  0.2-  0.1-    150117 673  0.1-  0.2+
    150116 807  0.0   0.0     150116 461  0.0   0.3-    150117 673  0.0   0.2-
    150116 H01  0.1-  0.1-    150116 Z99  0.2+  0.1-    150117 850  0.0   0.7+
    150116 807  0.0   0.0     150116 Z99  0.2+  0.2-    150117 850  0.8+  0.0
    150116 807  0.0   0.1+    150116 Z99  0.5+  0.2+    150117 850  0.1+  0.1+
    150116 807  0.0   0.1+    150117 G48  0.4-  0.1+    150117 850  0.1+  0.2+
    150116 H01  0.2-  0.1-    150117 G48  0.1+  0.0     150117 850  0.7-  0.9-
    150116 H01  0.1-  0.1-    150117 G48  0.2+  0.1-    150117 850  0.0   0.1-
    150116 H21  0.1+  0.0     150117 G48  0.0   0.1+    150117 G96  0.1-  0.1-
    150116 H21  0.2+  0.2+    150117 G48  0.6-  0.4+    150117 G96  0.1+  0.0
    150116 H21  0.1+  0.2+    150117 G48  0.1+  0.1-    150117 G96  0.2+  0.0
    150116 474  0.2-  0.0     150117 G48  0.1-  0.1-    150117 300  0.0   0.0
    150116 474  0.1+  0.1-    150117 G48  0.2-  0.1-    150117 300  0.3-  0.1+
    150116 474  0.2+  0.2-    150117 G48  0.1+  0.0     150117 300  0.2-  0.6-
    150116 E23  0.2+  0.2-    150117 807  0.0   0.0     150117 300  0.4-  0.1+
    150116 E23  0.3+  0.3+    150117 807  0.0   0.1+    150117 300  0.6+  0.3+
    150116 E23  0.1-  0.0     150117 807  0.0   0.0     150117 300  0.2+  0.1+
    150116 E23  0.1+  0.0     150117 807  0.0   0.1+    150117 300  0.2+  0.3+
    150116 E23  0.1+  0.0     150117 807  0.1-  0.0     150117 300  0.1+  0.1+
    
    Ephemeris:
    2015 BC                  a,e,i = 1.26, 0.58, 13                  q = 0.5343
    Date    TT    R. A. (2000) Decl.     Delta      r     Elong.  Phase     V
    2014 12 18    08 22 27.1 +02 08 50   0.3999  1.3005   135.7    31.9    24.0
    ...
    2015 01 02    08 31 02.2 +00 35 35   0.2112  1.1651   146.4    27.8    22.3
    ...
    2015 01 10    08 36 25.9 -00 00 18   0.1166  1.0874   151.6    25.5    20.8
    ...
    2015 01 16    08 49 04.6 -00 25 30   0.04761 1.0267   154.0    24.9    18.7
    2015 01 17    08 55 31.9 -00 32 47   0.03625 1.0164   153.7    25.4    18.1
    2015 01 18    09 07 46.2 -00 45 07   0.02496 1.0060   152.5    26.8    17.3
    ...
    2015 01 24    20 07 41.8 -00 12 58   0.04398 0.9430    19.5   159.6    28.0
    ...
    2015 02 01    20 22 44.7 -00 22 10   0.1366  0.8571    18.8   158.2    29.8
    ...
    2015 02 16    20 31 55.1 -02 06 47   0.3295  0.6975    23.3   145.9    28.6
    
    A. U. Tomatic                (C) Copyright 2015 MPC           M.P.E.C. 2015-B30
    

    Read MPEC 2015-B29 Read MPEC 2015-B31


    MPEC number:

    Enter an MPEC number in one of the following forms:

    • 1997-B01 (the full form)
    • J97B01 (the packed version of the full form)
    • B01 (the abbreviated form)